Date String (YYYY-MM-DD hh:mm:ss) UTC,Instrument flags,Ambient pressure (hPa),Sample flow (lpm),Bypass flow (lpm),Sample temperature (°C),Ambient temperature (°C),ASC tube jacket temperature (°C),LED temperature (°C),Box temperature (°C),Sample RH (%),Span deviation,Mass concentration (μg/m³),Mass concentration (μg/m³),Mass concentration (μg/m³)
DateTimeUTC,F1_M11,P_M11,Q1_M11,Q2_M11,T1_M11,T2_M11,T3_M11,T4_M11,T5_M11,U1_M11,ZSPAN_M11,X0_M11,X2_M11,X1_M11
2021-12-28 00:00:00,,0807.7,5.00,0.00,24.2,23.3,00.0,33.2,25.9,08.7,0000.0,0013.53,0003.07,0001.92
2021-12-28 00:01:00,,0807.7,5.00,0.00,24.2,23.3,00.0,33.2,25.9,08.9,0000.0,0013.18,0003.12,0001.91
2021-12-28 00:02:00,,0807.6,5.00,0.00,24.2,23.3,00.0,33.2,25.9,08.9,0000.0,0011.63,0003.07,0001.89
2021-12-28 00:03:00,,0807.7,5.01,0.00,24.2,23.3,00.0,33.2,25.8,08.8,0000.0,0011.21,0002.96,0001.88
2021-12-28 00:04:00,,0807.6,4.99,0.00,24.1,23.3,00.0,33.2,25.8,08.9,0000.0,0010.72,0002.92,0001.89
2021-12-28 00:05:00,,0807.6,5.01,0.00,24.1,23.3,00.0,33.2,25.7,08.8,0000.0,0011.09,0002.95,0001.92
2021-12-28 00:06:00,,0807.5,5.00,0.00,24.1,23.3,00.0,33.2,25.7,08.9,0000.0,0011.29,0002.91,0001.94
2021-12-28 00:07:00,,0807.5,4.99,0.00,24.1,23.3,00.0,33.2,25.7,08.9,0000.0,0011.50,0002.94,0001.95
2021-12-28 00:08:00,,0807.5,5.00,0.00,24.1,23.2,00.0,33.1,25.7,08.9,0000.0,0011.19,0002.98,0001.96
2021-12-28 00:09:00,,0807.4,5.00,0.00,24.1,23.2,00.0,33.1,25.7,08.9,0000.0,0010.63,0003.08,0001.99
2021-12-28 00:10:00,,0807.4,5.00,0.00,24.1,23.2,00.0,33.1,25.7,09.0,0000.0,0010.74,0003.16,0002.02
2021-12-28 00:11:00,,0807.4,5.01,0.00,24.1,23.2,00.0,33.1,25.7,09.0,0000.0,0011.19,0003.20,0002.05
2021-12-28 00:12:00,,0807.3,5.01,0.00,24.1,23.2,00.0,33.1,25.7,09.0,0000.0,0010.88,0003.19,0002.07
2021-12-28 00:13:00,,0807.3,5.00,0.00,24.0,23.2,00.0,33.1,25.7,08.9,0000.0,0010.90,0003.22,0002.08
2021-12-28 00:14:00,,0807.3,4.99,0.00,24.0,23.2,00.0,33.1,25.7,08.9,0000.0,0010.75,0003.21,0002.09
2021-12-28 00:15:00,,0807.4,5.00,0.00,24.0,23.2,00.0,33.1,25.7,08.9,0000.0,0010.64,0003.22,0002.10
2021-12-28 00:16:00,,0807.4,5.00,0.00,24.0,23.2,00.0,33.1,25.7,08.9,0000.0,0010.39,0003.24,0002.09
2021-12-28 00:17:00,,0807.4,4.99,0.00,24.0,23.2,00.0,33.1,25.6,08.9,0000.0,0010.20,0003.26,0002.09
2021-12-28 00:18:00,,0807.3,5.01,0.00,24.0,23.1,00.0,33.0,25.6,08.9,0000.0,0009.96,0003.27,0002.10
2021-12-28 00:19:00,,0807.3,4.99,0.00,24.0,23.1,00.0,33.0,25.6,08.9,0000.0,0009.52,0003.24,0002.10
2021-12-28 00:20:00,,0807.2,4.99,0.00,24.0,23.1,00.0,33.0,25.6,08.9,0000.0,0008.92,0003.21,0002.10
2021-12-28 00:21:00,,0807.2,5.01,0.00,24.0,23.1,00.0,33.0,25.6,08.9,0000.0,0009.38,0003.19,0002.10
2021-12-28 00:22:00,,0807.2,4.99,0.00,24.0,23.1,00.0,33.0,25.6,08.9,0000.0,0008.82,0003.20,0002.11
2021-12-28 00:23:00,,0807.3,5.00,0.00,24.0,23.1,00.0,33.0,25.6,08.9,0000.0,0008.23,0003.18,0002.11
2021-12-28 00:24:00,,0807.2,4.99,0.00,23.9,23.1,00.0,33.0,25.6,08.9,0000.0,0008.13,0003.18,0002.12
2021-12-28 00:25:00,,0807.2,5.00,0.00,23.9,23.1,00.0,33.0,25.6,08.9,0000.0,0007.82,0003.20,0002.13
2021-12-28 00:26:00,,0807.2,5.00,0.00,23.9,23.1,00.0,33.0,25.6,08.9,0000.0,0008.23,0003.18,0002.13
2021-12-28 00:27:00,,0807.1,5.01,0.00,23.9,23.1,00.0,33.0,25.6,08.9,0000.0,0008.38,0003.19,0002.13
2021-12-28 00:28:00,,0807.1,5.00,0.00,23.9,23.1,00.0,33.0,25.6,08.9,0000.0,0008.40,0003.17,0002.13
2021-12-28 00:29:00,,0807.1,5.00,0.00,23.9,23.0,00.0,32.9,25.6,09.0,0000.0,0008.83,0003.19,0002.14
2021-12-28 00:30:00,,0807.1,4.99,0.00,23.9,23.0,00.0,32.9,25.5,09.0,0000.0,0009.10,0003.23,0002.15
2021-12-28 00:31:00,,0807.1,5.01,0.00,23.9,23.0,00.0,32.9,25.5,09.0,0000.0,0009.24,0003.26,0002.16
2021-12-28 00:32:00,,0807.1,5.00,0.00,23.9,23.0,00.0,32.9,25.5,09.0,0000.0,0008.71,0003.30,0002.17
2021-12-28 00:33:00,,0807.1,5.00,0.00,23.9,23.0,00.0,32.9,25.5,09.0,0000.0,0008.70,0003.31,0002.20
2021-12-28 00:34:00,,0807.1,4.99,0.00,23.8,23.0,00.0,32.9,25.5,09.1,0000.0,0008.77,0003.33,0002.24
2021-12-28 00:35:00,,0807.0,4.99,0.00,23.8,23.0,00.0,32.9,25.5,09.1,0000.0,0009.05,0003.38,0002.28
2021-12-28 00:36:00,,0807.0,5.00,0.00,23.8,23.0,00.0,32.9,25.5,09.1,0000.0,0009.05,0003.40,0002.30
2021-12-28 00:37:00,,0806.9,5.02,0.00,23.8,23.0,00.0,32.9,25.5,09.1,0000.0,0009.21,0003.48,0002.32
2021-12-28 00:38:00,,0807.0,4.98,0.00,23.8,23.0,00.0,32.9,25.5,09.1,0000.0,0008.84,0003.48,0002.34
2021-12-28 00:39:00,,0807.0,5.00,0.00,23.8,23.0,00.0,32.9,25.5,09.1,0000.0,0008.84,0003.49,0002.36
2021-12-28 00:40:00,,0807.0,5.01,0.00,23.8,22.9,00.0,32.8,25.4,09.1,0000.0,0008.80,0003.51,0002.38
2021-12-28 00:41:00,,0807.0,4.99,0.00,23.8,22.9,00.0,32.8,25.5,09.1,0000.0,0008.62,0003.50,0002.39
2021-12-28 00:42:00,,0806.9,5.00,0.00,23.8,22.9,00.0,32.8,25.5,09.1,0000.0,0008.94,0003.48,0002.41
2021-12-28 00:43:00,,0806.8,5.01,0.00,23.8,22.9,00.0,32.8,25.5,09.1,0000.0,0009.68,0003.48,0002.41
2021-12-28 00:44:00,,0806.9,4.99,0.00,23.7,22.9,00.0,32.8,25.5,09.1,0000.0,0010.05,0003.48,0002.42
2021-12-28 00:45:00,,0806.9,4.99,0.00,23.7,22.9,00.0,32.8,25.5,09.1,0000.0,0010.71,0003.49,0002.40
2021-12-28 00:46:00,,0806.9,5.01,0.00,23.7,22.9,00.0,32.8,25.4,09.1,0000.0,0010.76,0003.46,0002.37
2021-12-28 00:47:00,,0807.0,4.99,0.00,23.7,22.9,00.0,32.8,25.4,09.1,0000.0,0010.67,0003.42,0002.36
2021-12-28 00:48:00,,0806.9,5.00,0.00,23.7,22.9,00.0,32.8,25.4,09.1,0000.0,0010.46,0003.40,0002.37
2021-12-28 00:49:00,,0806.8,5.00,0.00,23.7,22.9,00.0,32.8,25.4,09.1,0000.0,0010.51,0003.42,0002.40
2021-12-28 00:50:00,,0806.8,5.00,0.00,23.7,22.9,00.0,32.8,25.4,09.1,0000.0,0010.61,0003.46,0002.41
2021-12-28 00:51:00,,0806.8,4.99,0.00,23.7,22.9,00.0,32.7,25.4,09.2,0000.0,0013.20,0003.47,0002.42
2021-12-28 00:52:00,,0806.8,5.01,0.00,23.7,22.9,00.0,32.7,25.4,09.2,0000.0,0013.71,0003.51,0002.44
2021-12-28 00:53:00,,0806.8,4.99,0.00,23.7,22.8,00.0,32.7,25.3,09.2,0000.0,0013.38,0003.51,0002.43
2021-12-28 00:54:00,,0806.8,5.00,0.00,23.7,22.8,00.0,32.7,25.3,09.2,0000.0,0012.83,0003.49,0002.42
2021-12-28 00:55:00,,0806.8,5.01,0.00,23.6,22.8,00.0,32.7,25.3,09.2,0000.0,0012.84,0003.50,0002.40
2021-12-28 00:56:00,,0806.9,4.99,0.00,23.6,22.8,00.0,32.7,25.2,09.2,0000.0,0012.73,0003.49,0002.42
2021-12-28 00:57:00,,0806.9,5.01,0.00,23.6,22.8,00.0,32.7,25.2,09.2,0000.0,0013.39,0003.49,0002.44
2021-12-28 00:58:00,,0806.8,5.01,0.00,23.6,22.8,00.0,32.7,25.2,09.2,0000.0,0014.55,0003.49,0002.44
2021-12-28 00:59:00,,0806.8,4.99,0.00,23.6,22.8,00.0,32.7,25.2,09.2,0000.0,0014.76,0003.47,0002.43
